Location: Pasarilla del Rebollar
(40.6790°N, 5.0062°W)
Time: 10:46:44
(UTC+00:00)

Iridium 4 Rocket - Pass Details

Date: 22 April 2026
Orbit: 582 x 883 km, 86.9° (Epoch: 15 May)

Event Time Altitude Azimuth Distance (km) Brightness Sun altitude
Exits shadow 03:42:33 33° 271° (W) 1,137 4.0 -19.2°
Maximum altitude 03:42:51 34° 279° (W) 1,135 4.0 -19.2°
Drops below altitude 10° 03:47:20 10° 344° (NNW) 2,236 6.1 -18.5°
Sets 03:49:58 0° 354° (N) 3,218 7.1 -18.1°
